,

(GMT )
Holesov

Weather History for LKHO - June, 2014

Change the Weather History Date:

Sunday, June 8, 2014

  Actual Average Record
Temperature  
Mean Temperature 68 °F -  
Max Temperature 86 °F - - ()
Min Temperature 49 °F - - ()
Cooling Degree Days 2    
Growing Degree Days 18 (Base 50)    
Moisture  
Dew Point 49 °F    
Average Humidity 45    
Maximum Humidity 86    
Minimum Humidity 13    
Precipitation  
Precipitation 0.00 in - - ()
Sea Level Pressure  
Sea Level Pressure 30.14 in    
Wind  
Wind Speed 3 mph ()    
Max Wind Speed 7 mph    
Max Gust Speed -    
Visibility 13.3 miles    
Events      
T = Trace of Precipitation, MM = Missing Value Source: Averaged Metar Reports

Daily Weather History Graph

Daily Weather History Graph

Search for Another Location

Airport or City:

Trip Planner

Search our weather history database for the weather conditions in past years. The results will help you decide how hot, cold, wet, or windy it might be!

Date:

Astronomy

Jun. 08, 2014 Rise Set
Actual Time 4:45 AM CEST 8:52 PM CEST
Civil Twilight 4:02 AM CEST 9:35 PM CEST
Nautical Twilight 3:01 AM CEST 10:36 PM CEST
Astronomical Twilight 1:21 AM CEST 12:16 AM CEST
Moon 3:28 PM CEST 1:56 AM CEST
Length of Visible Light 17h 33m
Length of Day
16h 07m
Waxing Gibbous, 74% of the Moon is Illuminated
Jun 8
Waxing Gibbous
Jun 13
Full
Jun 19
Last Quarter
Jun 27
New
Jul 5
First Quarter

Hourly Weather History & Observations

Time (CEST) Temp. Dew Point Humidity Pressure Visibility Wind Dir Wind Speed Gust Speed Precip Events Conditions
12:00 AM 56 °F 47 °F 65% 30.14 in 12 mi SSE 2.2 mph - -  
1:00 AM 56 °F 47 °F 65% 30.14 in 12 mi ENE 2.2 mph - -  
2:00 AM 53 °F 45 °F 67% 30.14 in 12 mi East 2.2 mph - -   Clear
3:00 AM 52 °F 47 °F 76% 30.16 in 12 mi SSW 2.2 mph - -  
4:00 AM 52 °F 47 °F 79% 30.17 in 12 mi ESE 2.2 mph - -   Clear
5:00 AM 50 °F 47 °F 85% 30.18 in 12 mi WNW 2.2 mph - -   Clear
6:00 AM 53 °F 50 °F 86% 30.18 in 11 mi SE 2.2 mph - -  
7:00 AM 57 °F 49 °F 68% 30.18 in 12 mi South 2.2 mph - -   Scattered Clouds
8:00 AM 62 °F 49 °F 54% 30.18 in 12 mi West 2.2 mph - -   Partly Cloudy
9:00 AM 67 °F 51 °F 45% 30.17 in 12 mi SW 2.2 mph - -   Clear
10:00 AM 72 °F 51 °F 37% 30.16 in 19 mi West 2.2 mph - -   Clear
11:00 AM 77 °F 54 °F 35% 30.16 in 19 mi NW 4.5 mph - -   Clear
12:00 PM 82 °F 47 °F 19% 30.15 in 19 mi NNW 4.5 mph - -   Clear
1:00 PM 83 °F 44 °F 16% 30.14 in 31 mi NNW 6.7 mph - -   Scattered Clouds
2:00 PM 85 °F 43 °F 13% 30.13 in 31 mi NW 6.7 mph - -   Scattered Clouds
3:00 PM 85 °F 45 °F 15% 30.12 in 31 mi NNW 4.5 mph - -   Scattered Clouds
4:00 PM 86 °F 46 °F 16% 30.11 in 31 mi WNW 6.7 mph - -   Scattered Clouds
5:00 PM 86 °F 46 °F 15% 30.11 in 31 mi North 4.5 mph - -   Scattered Clouds
6:00 PM 85 °F 48 °F 18% 30.10 in 12 mi North 6.7 mph - -  
7:00 PM 84 °F 51 °F 22% 30.10 in 31 mi NNE 6.7 mph - -   Partly Cloudy
8:00 PM 81 °F 50 °F 24% 30.11 in 31 mi North 6.7 mph - -   Partly Cloudy
9:00 PM 73 °F 54 °F 42% 30.13 in 37 mi NNE 4.5 mph - -   Clear
10:00 PM 68 °F 54 °F 52% 30.15 in 31 mi ENE 4.5 mph - -   Clear
11:00 PM 64 °F 55 °F 65% 30.16 in 12 mi ENE 4.5 mph - -   Clear